Search your local weather  

 
Advertise Here

Hazardous Weather Conditions

No active alerts for CHICAGO, ILLINOIS

Current Conditions: CHICAGO, ILLINOIS

Fair


28.0 F

Last Updated on Mar 6 2021, 10:52 pm CST
Humidity: 81%
Wind Speed: N 0.0 mph
Barometer 30.34 in
Dewpoint: 23.0 F
Visibility: 10.00 mi
Precip: --
Heat Index: NA
Wind Chill: NA
Current conditions at:

Chicago / Wheeling, Pal-Waukee Airport, IL (KPWK)

Lat: 42.12083 Lon: -87.90472

Local Radar Image active severe weather and emergency alerts image image weather storm and storm spotter reports image weather observation monitoring service image
Local
Radar
Active
Alerts
Storm Reports Weather
Monitoring

5 Day Forecast for CHICAGO, ILLINOIS (60601)

Saturday

Mostly Cloudy

High 38 °F
Saturday
Night
Mostly Clear

Low 26 °F
Sunday

Mostly Cloudy

High 49 °F
Sunday
Night
Partly Cloudy

Low 39 °F
Monday

Partly Cloudy

High 59 °F
Monday
Night
Partly Cloudy

Low 43 °F
Tuesday

Partly Cloudy

High 61 °F
Tuesday
Night
Slight Chance of Rain
Low 50 °F
Wednesday

Chance of Rain
High 62 °F

Sign-up For Email & Text Message Weather Alert Notification Services


Advertise Here

Observation History for CHICAGO, ILLINOIS


Time Wind
(mph)
Vis
(mi)
Weather Precip (in) Temperature (F) Relative
Humidity
Wind
Chill
(F)
Heat
Index
(F)
Pressure
Air Dwpt altimeter
(in)
sea level
(mb)
10:52 pm CST N 0.0 10.00 Fair -- 28.0 23.0 81% NA NA 30.34 1028.0
9:52 pm CST N 0.0 10.00 Fair -- 30.0 24.1 79% NA NA 30.33 1027.8
8:52 pm CST N 0.0 10.00 Fair -- 30.0 25.0 82% NA NA 30.34 1028.0
7:52 pm CST N 0.0 10.00 Fair -- 33.0 26.1 75% NA NA 30.33 1027.8
6:52 pm CST N 0.0 10.00 Fair -- 35.0 26.1 70% NA NA 30.33 1027.9
5:52 pm CST E 6.9 10.00 Fair -- 39.0 25.0 57% 34 NA 30.32 1027.5
4:52 pm CST 3.5 10.00 Fair -- 41.0 26.1 55% NA NA 30.32 1027.3
3:52 pm CST NE 9.2 10.00 Fair -- 43.0 27.0 53% 38 NA 30.31 1027.2
2:52 pm CST E 8.1 10.00 Fair -- 43.0 28.0 56% 38 NA 30.31 1026.9
1:52 pm CST E 8.1 10.00 Fair -- 44.0 28.0 53% 39 NA 30.31 1026.9
12:52 pm CST E 5.8 10.00 Fair -- 43.0 27.0 53% 39 NA 30.34 1027.9
11:52 am CST NE 3.5 10.00 Fair -- 44.0 26.1 49% NA NA 30.36 1028.6
10:52 am CST NE 8.1 10.00 Fair -- 42.0 26.1 53% 37 NA 30.38 1029.4
9:52 am CST 4.6 10.00 Fair -- 41.0 24.1 51% 38 NA 30.37 1029.2
8:52 am CST E 3.5 10.00 Fair -- 38.0 28.0 68% NA NA 30.37 1029.0
7:52 am CST N 0.0 10.00 Fair -- 32.0 27.0 82% NA NA 30.37 1029.2
6:52 am CST N 0.0 9.00 Fair -- 26.0 21.9 84% NA NA 30.37 1028.9
5:52 am CST N 0.0 10.00 Fair -- 24.0 19.9 84% NA NA 30.36 1028.8
4:52 am CST N 0.0 10.00 Fair -- 25.0 21.0 85% NA NA 30.35 1028.3
3:52 am CST N 0.0 10.00 Fair -- 26.0 21.9 84% NA NA 30.34 1028.0
2:52 am CST N 0.0 10.00 Fair -- 26.0 21.0 81% NA NA 30.33 1027.6
1:52 am CST N 0.0 10.00 Fair -- 26.0 21.9 84% NA NA 30.33 1027.8
12:52 am CST N 0.0 10.00 Fair -- 27.0 21.9 81% NA NA 30.33 1027.5
11:52 pm CST N 0.0 10.00 Fair -- 28.0 23.0 81% NA NA 30.33 1027.5

Regional Weather Observation

Chicago, Chicago-OHare International Airport, IL (KORD)

Fair
31.0 F

Chicago/Waukegan Regional Airport, IL (KUGN)

Fog/Mist
26.0 F

Chicago, Chicago Midway Airport, IL (KMDW)

Fair
33.0 F

Schaumburg Regional Airport, IL (K06C)

Fair
27.0 F

Kenosha, Kenosha Regional Airport, WI (KENW)

Fair
29.0 F

Chicago / West Chicago, Dupage Airport, IL (KDPA)

Fair
27.0 F
Advertise Here

Advertise Here